Radiation Dose at Monitoring Post of Fukushima Daini Nuclear Power Station
Date,Time,MP-1(microSv/h),MP-2(microSv/h),MP-3(microSv/h),MP-4(microSv/h),MP-5(microSv/h),MP-6(microSv/h),MP-7(microSv/h),Wind Direction,Wind Velocity(m/s),Rain
2016/04/29,00:00,0.435,0.252,0.451,0.395,0.381,0.202,0.175,north,7.9,No
2016/04/29,00:10,0.431,0.251,0.452,0.398,0.381,0.203,0.174,north,6.9,No
2016/04/29,00:20,0.435,0.252,0.453,0.397,0.383,0.202,0.173,north,6.9,No
2016/04/29,00:30,0.432,0.253,0.449,0.398,0.381,0.202,0.174,north,6.9,No
2016/04/29,00:40,0.434,0.250,0.455,0.398,0.383,0.203,0.175,north-northeast,8.7,No
2016/04/29,00:50,0.433,0.251,0.449,0.396,0.381,0.203,0.173,north-northeast,8.4,No
2016/04/29,01:00,0.432,0.251,0.453,0.401,0.384,0.202,0.174,north,7.3,No
2016/04/29,01:10,0.433,0.253,0.450,0.397,0.381,0.204,0.172,north-northeast,7.8,No
2016/04/29,01:20,0.433,0.251,0.451,0.399,0.382,0.202,0.174,north,7.2,No
2016/04/29,01:30,0.435,0.252,0.452,0.399,0.383,0.201,0.174,north,7.1,No
2016/04/29,01:40,0.433,0.253,0.451,0.398,0.382,0.203,0.174,north,6.3,No
2016/04/29,01:50,0.435,0.251,0.453,0.399,0.383,0.202,0.175,north,5.8,No
2016/04/29,02:00,0.432,0.253,0.451,0.398,0.382,0.203,0.174,north,5.8,No
2016/04/29,02:10,0.434,0.252,0.455,0.400,0.382,0.203,0.175,north,6.4,No
2016/04/29,02:20,0.434,0.253,0.451,0.397,0.382,0.202,0.174,north,7.3,No
2016/04/29,02:30,0.434,0.253,0.453,0.398,0.383,0.204,0.174,north,7.2,No
2016/04/29,02:40,0.435,0.251,0.452,0.399,0.384,0.204,0.174,north,6.3,No
2016/04/29,02:50,0.433,0.253,0.453,0.398,0.382,0.204,0.175,north,6.9,No
2016/04/29,03:00,0.437,0.252,0.454,0.399,0.382,0.204,0.175,north,7.5,No
2016/04/29,03:10,0.434,0.254,0.450,0.397,0.384,0.203,0.175,north,7.3,No
2016/04/29,03:20,0.435,0.253,0.455,0.400,0.382,0.203,0.174,north-northwest,8.6,No
2016/04/29,03:30,0.434,0.252,0.451,0.400,0.384,0.204,0.174,north,6.9,No
2016/04/29,03:40,0.436,0.253,0.454,0.398,0.381,0.203,0.175,north,7.6,No
2016/04/29,03:50,0.434,0.251,0.454,0.400,0.383,0.203,0.174,north-northwest,6.0,No
2016/04/29,04:00,0.433,0.253,0.452,0.398,0.382,0.203,0.175,north-northwest,6.7,No
2016/04/29,04:10,0.437,0.254,0.455,0.401,0.383,0.203,0.174,north-northwest,6.5,No
2016/04/29,04:20,0.433,0.252,0.451,0.399,0.384,0.204,0.174,north-northwest,6.3,No
2016/04/29,04:30,0.438,0.254,0.454,0.399,0.384,0.204,0.175,north,4.9,No
2016/04/29,04:40,0.434,0.253,0.451,0.401,0.384,0.203,0.174,north-northwest,4.5,No
2016/04/29,04:50,0.436,0.254,0.453,0.398,0.384,0.204,0.175,north-northeast,3.1,No
2016/04/29,05:00,0.434,0.253,0.455,0.402,0.383,0.203,0.175,north,3.5,No
2016/04/29,05:10,0.436,0.253,0.453,0.398,0.384,0.203,0.174,north-northwest,4.6,No
2016/04/29,05:20,0.438,0.253,0.456,0.400,0.382,0.204,0.174,northwest,3.9,No
2016/04/29,05:30,0.435,0.253,0.452,0.400,0.382,0.204,0.175,north-northwest,3.6,No
2016/04/29,05:40,0.437,0.251,0.456,0.399,0.385,0.204,0.174,northwest,4.2,No
2016/04/29,05:50,0.435,0.254,0.455,0.401,0.383,0.204,0.174,north-northwest,3.9,No
2016/04/29,06:00,0.439,0.253,0.453,0.400,0.383,0.203,0.174,northwest,3.5,No
2016/04/29,06:10,0.434,0.253,0.453,0.400,0.381,0.203,0.175,north-northwest,7.4,No
2016/04/29,06:20,0.435,0.253,0.452,0.401,0.384,0.204,0.174,north-northwest,5.6,No
2016/04/29,06:30,0.436,0.251,0.456,0.400,0.382,0.203,0.174,north-northwest,6.8,No
2016/04/29,06:40,0.436,0.253,0.451,0.400,0.385,0.205,0.174,northwest,5.3,No
2016/04/29,06:50,0.436,0.252,0.456,0.397,0.380,0.204,0.176,west-northwest,4.5,No
2016/04/29,07:00,0.436,0.254,0.452,0.401,0.386,0.205,0.174,northwest,5.5,No
2016/04/29,07:10,0.437,0.252,0.452,0.397,0.383,0.204,0.175,northwest,8.9,No
2016/04/29,07:20,0.436,0.254,0.452,0.400,0.385,0.204,0.175,west-northwest,10.1,No
2016/04/29,07:30,0.436,0.251,0.450,0.398,0.383,0.203,0.175,northwest,9.3,No
2016/04/29,07:40,0.435,0.253,0.454,0.399,0.385,0.204,0.176,northwest,9.3,No
2016/04/29,07:50,0.437,0.254,0.455,0.400,0.385,0.204,0.175,northwest,7.0,No
2016/04/29,08:00,0.436,0.252,0.455,0.397,0.384,0.205,0.176,northwest,8.4,No
2016/04/29,08:10,0.436,0.254,0.455,0.402,0.383,0.204,0.175,west-northwest,7.8,No
2016/04/29,08:20,0.437,0.252,0.457,0.397,0.387,0.205,0.176,northwest,8.0,No
2016/04/29,08:30,0.436,0.254,0.455,0.402,0.382,0.205,0.177,west-northwest,8.5,No
2016/04/29,08:40,0.438,0.252,0.457,0.400,0.387,0.206,0.175,northwest,10.1,No
2016/04/29,08:50,0.435,0.255,0.456,0.399,0.384,0.206,0.176,northwest,7.5,No
2016/04/29,09:00,0.440,0.254,0.456,0.402,0.384,0.205,0.176,northwest,6.5,No
2016/04/29,09:10,0.434,0.253,0.457,0.399,0.384,0.206,0.176,west-northwest,7.5,No
2016/04/29,09:20,0.438,0.254,0.456,0.396,0.382,0.205,0.177,northwest,6.7,No
2016/04/29,09:30,0.438,0.251,0.456,0.401,0.387,0.204,0.176,northwest,7.3,No
2016/04/29,09:40,0.437,0.255,0.457,0.403,0.385,0.205,0.176,northwest,8.3,No
2016/04/29,09:50,0.441,0.254,0.454,0.398,0.380,0.205,0.175,north-northwest,7.3,No
2016/04/29,10:00,0.437,0.253,0.459,0.398,0.388,0.205,0.177,northwest,8.9,No
2016/04/29,10:10,0.438,0.256,0.455,0.404,0.384,0.206,0.177,northwest,10.1,No
2016/04/29,10:20,0.440,0.254,0.458,0.400,0.383,0.205,0.176,northwest,8.2,No
2016/04/29,10:30,0.436,0.255,0.456,0.399,0.391,0.206,0.176,west-northwest,7.0,No
2016/04/29,10:40,0.441,0.254,0.452,0.401,0.384,0.206,0.178,west-northwest,8.2,No
2016/04/29,10:50,0.439,0.254,0.457,0.404,0.382,0.205,0.176,north-northwest,7.4,No
2016/04/29,11:00,0.435,0.255,0.454,0.402,0.390,0.205,0.176,north-northwest,9.1,No
2016/04/29,11:10,0.440,0.255,0.452,0.398,0.385,0.205,0.179,north-northwest,9.5,No
2016/04/29,11:20,0.438,0.254,0.458,0.405,0.385,0.206,0.177,north-northwest,6.4,No
2016/04/29,11:30,0.440,0.258,0.457,0.406,0.388,0.205,0.176,north-northwest,9.3,No
2016/04/29,11:40,0.443,0.255,0.457,0.400,0.385,0.207,0.179,north-northwest,8.6,No
2016/04/29,11:50,0.438,0.258,0.461,0.402,0.383,0.207,0.178,north-northwest,5.1,No
2016/04/29,12:00,0.444,0.256,0.456,0.408,0.389,0.205,0.177,northwest,3.6,No
2016/04/29,12:10,0.439,0.254,0.461,0.404,0.387,0.207,0.179,west-northwest,4.0,No
2016/04/29,12:20,0.442,0.257,0.457,0.406,0.386,0.206,0.180,northwest,4.5,No
2016/04/29,12:30,0.441,0.254,0.458,0.408,0.389,0.206,0.176,northwest,4.7,No
2016/04/29,12:40,0.441,0.256,0.462,0.403,0.386,0.207,0.178,west-northwest,6.2,No
2016/04/29,12:50,0.443,0.256,0.455,0.403,0.383,0.207,0.178,west,9.0,No
2016/04/29,13:00,0.439,0.255,0.457,0.406,0.388,0.206,0.177,west-northwest,6.0,No
2016/04/29,13:10,0.442,0.257,0.459,0.403,0.385,0.206,0.179,west-northwest,2.8,No
2016/04/29,13:20,0.439,0.254,0.457,0.405,0.390,0.206,0.179,west-northwest,4.8,No
2016/04/29,13:30,0.444,0.256,0.462,0.408,0.390,0.207,0.179,west-northwest,7.2,No
2016/04/29,13:40,0.440,0.256,0.458,0.403,0.387,0.207,0.180,west,7.8,Yes
2016/04/29,13:50,0.444,0.256,0.461,0.406,0.390,0.207,0.179,west-northwest,6.8,Yes
2016/04/29,14:00,0.443,0.254,0.461,0.404,0.386,0.207,0.180,west-northwest,6.9,No
2016/04/29,14:10,0.442,0.256,0.460,0.410,0.393,0.208,0.180,west-northwest,6.4,Yes
2016/04/29,14:20,0.442,0.255,0.462,0.406,0.388,0.208,0.179,west,7.7,No
2016/04/29,14:30,0.442,0.257,0.457,0.408,0.391,0.207,0.181,west,11.0,No
2016/04/29,14:40,0.442,0.255,0.461,0.405,0.387,0.208,0.180,west,7.8,Yes
2016/04/29,14:50,0.441,0.256,0.455,0.404,0.387,0.206,0.180,west-northwest,9.5,No
2016/04/29,15:00,0.444,0.256,0.460,0.408,0.387,0.207,0.180,west-northwest,8.3,No
2016/04/29,15:10,0.440,0.256,0.460,0.405,0.385,0.207,0.179,west-northwest,8.0,No
2016/04/29,15:20,0.444,0.257,0.461,0.409,0.389,0.209,0.180,northwest,6.8,No
2016/04/29,15:30,0.440,0.257,0.463,0.405,0.384,0.207,0.179,north-northwest,9.4,No
2016/04/29,15:40,0.443,0.256,0.459,0.409,0.388,0.207,0.180,northwest,9.7,No
2016/04/29,15:50,0.441,0.256,0.461,0.406,0.388,0.208,0.179,north-northwest,10.7,No
2016/04/29,16:00,0.444,0.256,0.461,0.408,0.384,0.207,0.180,north-northwest,11.0,No
2016/04/29,16:10,0.443,0.257,0.464,0.406,0.389,0.208,0.179,north-northwest,6.5,No
2016/04/29,16:20,0.442,0.257,0.462,0.408,0.389,0.207,0.179,northwest,5.9,No
2016/04/29,16:30,0.446,0.258,0.463,0.406,0.393,0.208,0.181,north-northwest,9.4,No
2016/04/29,16:40,0.443,0.256,0.463,0.410,0.386,0.207,0.179,north,9.8,No
2016/04/29,16:50,0.444,0.257,0.463,0.407,0.389,0.208,0.180,north-northwest,10.3,No
2016/04/29,17:00,0.442,0.257,0.463,0.408,0.387,0.208,0.180,north-northwest,7.8,No
2016/04/29,17:10,0.446,0.257,0.459,0.410,0.391,0.208,0.180,northwest,6.7,No
2016/04/29,17:20,0.442,0.259,0.464,0.408,0.389,0.209,0.180,northwest,6.8,No
2016/04/29,17:30,0.445,0.257,0.461,0.409,0.392,0.209,0.180,northwest,8.5,No
2016/04/29,17:40,0.442,0.257,0.463,0.406,0.388,0.208,0.180,west-northwest,4.7,No
2016/04/29,17:50,0.442,0.258,0.462,0.408,0.390,0.208,0.179,northwest,4.2,No
2016/04/29,18:00,0.444,0.257,0.465,0.406,0.389,0.207,0.180,west-northwest,3.2,No
2016/04/29,18:10,0.443,0.257,0.461,0.409,0.391,0.208,0.180,northwest,4.2,No
2016/04/29,18:20,0.446,0.256,0.462,0.410,0.390,0.209,0.180,west-northwest,4.7,No
2016/04/29,18:30,0.443,0.258,0.465,0.407,0.389,0.208,0.179,northwest,5.7,No
2016/04/29,18:40,0.445,0.257,0.462,0.409,0.389,0.208,0.179,northwest,6.4,No
2016/04/29,18:50,0.444,0.257,0.464,0.408,0.390,0.208,0.181,northwest,6.1,No
2016/04/29,19:00,0.442,0.259,0.462,0.407,0.387,0.208,0.180,northwest,6.3,No
2016/04/29,19:10,0.447,0.258,0.462,0.410,0.389,0.210,0.180,northwest,5.8,No
2016/04/29,19:20,0.443,0.256,0.464,0.407,0.387,0.208,0.181,northwest,5.1,No
2016/04/29,19:30,0.444,0.257,0.461,0.409,0.388,0.209,0.180,northwest,4.3,No
2016/04/29,19:40,0.446,0.257,0.465,0.409,0.389,0.208,0.180,northwest,3.3,No
2016/04/29,19:50,0.444,0.257,0.462,0.408,0.389,0.208,0.180,west-northwest,3.3,No
2016/04/29,20:00,0.444,0.258,0.462,0.408,0.387,0.208,0.180,west-northwest,3.4,No
2016/04/29,20:10,0.443,0.257,0.465,0.407,0.387,0.209,0.181,northwest,4.2,No
2016/04/29,20:20,0.444,0.256,0.462,0.407,0.387,0.209,0.180,north-northwest,3.7,No
2016/04/29,20:30,0.444,0.257,0.464,0.408,0.386,0.208,0.180,northwest,2.8,No
2016/04/29,20:40,0.442,0.257,0.464,0.407,0.389,0.207,0.180,northwest,3.6,No
2016/04/29,20:50,0.444,0.256,0.463,0.408,0.386,0.209,0.181,northwest,3.9,No
2016/04/29,21:00,0.444,0.258,0.466,0.409,0.387,0.208,0.181,northwest,5.0,No
2016/04/29,21:10,0.443,0.257,0.464,0.409,0.388,0.208,0.180,northwest,4.9,No
2016/04/29,21:20,0.446,0.257,0.461,0.409,0.386,0.209,0.180,west-northwest,4.2,No
2016/04/29,21:30,0.446,0.258,0.466,0.407,0.388,0.209,0.181,northwest,2.8,No
2016/04/29,21:40,0.443,0.258,0.462,0.409,0.388,0.208,0.180,northwest,2.2,No
2016/04/29,21:50,0.445,0.256,0.462,0.408,0.388,0.207,0.180,west-northwest,2.8,No
2016/04/29,22:00,0.445,0.257,0.464,0.409,0.388,0.208,0.180,west-northwest,3.1,No
2016/04/29,22:10,0.442,0.257,0.463,0.406,0.388,0.209,0.180,northwest,3.3,No
2016/04/29,22:20,0.446,0.258,0.463,0.407,0.389,0.208,0.180,northwest,2.7,No
2016/04/29,22:30,0.444,0.258,0.465,0.411,0.386,0.207,0.182,north-northwest,2.3,No
2016/04/29,22:40,0.444,0.257,0.462,0.408,0.387,0.209,0.180,north-northwest,2.5,No
2016/04/29,22:50,0.445,0.257,0.464,0.408,0.388,0.208,0.181,northwest,2.5,No
2016/04/29,23:00,0.443,0.257,0.466,0.409,0.388,0.209,0.181,north-northwest,4.6,No
2016/04/29,23:10,0.442,0.257,0.462,0.409,0.387,0.208,0.181,north-northwest,4.8,No
2016/04/29,23:20,0.445,0.257,0.463,0.408,0.387,0.210,0.180,north-northwest,3.9,No
2016/04/29,23:30,0.444,0.258,0.466,0.409,0.387,0.209,0.180,north-northwest,4.0,No
2016/04/29,23:40,0.443,0.257,0.462,0.409,0.386,0.208,0.181,north-northwest,4.0,No
2016/04/29,23:50,0.445,0.257,0.462,0.408,0.388,0.209,0.181,north-northwest,4.2,No
